DW1024 Weather Reports


time (UTC)temp
F
wind
direction
speed
knots
gust
knots
rain 1hr
in
rain 24hr
in
rain mn
in
humidity
%
barometer
mb
20260510013722 45 64 0.0 0.0 0.00 0.00 0.00 83 1014.2
20260510012221 45 64 0.0 0.0 0.00 0.00 0.00 83 1014.3
20260510010723 45 64 0.0 0.0 0.00 0.00 0.00 82 1014.4
20260510005221 46 64 0.0 0.0 0.00 0.00 0.00 82 1014.5
20260510003724 46 64 0.0 0.0 0.00 0.00 0.00 82 1014.5
20260510002221 47 64 0.0 0.0 0.00 0.00 0.00 81 1014.6
20260510000722 47 64 0.0 0.0 0.00 0.00 0.00 81 1014.8
20260509235221 48 64 0.0 0.0 0.00 0.00 0.00 80 1014.9
20260509233718 48 64 0.0 0.0 0.00 0.00 0.00 79 1015.1
20260509232218 49 64 0.0 0.0 0.00 0.00 0.00 79 1015.2
20260509230716 49 64 0.0 0.0 0.00 0.00 0.00 78 1015.3
20260509225215 50 64 0.0 0.0 0.00 0.00 0.00 77 1015.4
20260509223713 51 64 0.0 0.0 0.00 0.00 0.00 76 1015.4
20260509222212 51 64 0.0 0.0 0.00 0.00 0.00 75 1015.5
20260509215211 53 64 0.0 0.0 0.00 0.00 0.00 72 1015.6
20260509212207 55 64 0.0 0.0 0.00 0.00 0.00 68 1015.6
20260509210709 56 64 0.0 0.0 0.00 0.00 0.00 66 1015.7
20260509205207 58 64 0.0 0.0 0.00 0.00 0.00 64 1015.8
20260509203709 58 64 0.0 0.0 0.00 0.00 0.00 63 1015.9
20260509202207 59 64 0.0 0.0 0.00 0.00 0.00 62 1015.8
20260509200709 60 64 0.0 3.5 0.00 0.00 0.00 61 1015.9
20260509193706 62 49 0.0 2.6 0.00 0.00 0.00 59 1016.1
20260509192209 62 52 0.9 3.5 0.00 0.00 0.00 58 1016.1
20260509190702 63 84 0.9 5.2 0.00 0.00 0.00 56 1016.1
20260509183703 65 39 0.9 3.5 0.00 0.00 0.00 54 1015.8
20260509182207 66 314 1.7 5.2 0.00 0.00 0.00 53 1015.6
20260509180702 66 28 0.9 4.3 0.00 0.00 0.00 52 1015.5
20260509175203 67 92 1.7 4.3 0.00 0.00 0.00 51 1015.6
20260509173712 68 284 1.7 4.3 0.00 0.00 0.00 50 1015.5
20260509172203 68 40 0.9 7.0 0.00 0.00 0.00 50 1015.6
20260509170707 69 288 0.9 5.2 0.00 0.00 0.00 50 1015.5
20260509165201 69 103 1.7 7.0 0.00 0.00 0.00 49 1015.5
20260509163701 70 36 0.9 7.0 0.00 0.00 0.00 50 1015.5
20260509162203 70 265 2.6 8.7 0.00 0.00 0.00 49 1015.6
20260509160701 71 48 4.3 9.6 0.00 0.00 0.00 47 1015.7
20260509155203 72 53 1.7 10.4 0.00 0.00 0.00 46 1015.9
20260509153701 71 207 1.7 4.3 0.00 0.00 0.00 49 1016.2
20260509152203 71 43 2.6 7.8 0.00 0.00 0.00 48 1016.1
20260509150701 70 37 3.5 9.6 0.00 0.00 0.00 49 1016.3
20260509145203 71 187 2.6 7.0 0.00 0.00 0.00 48 1016.3
20260509143701 71 105 4.3 9.6 0.00 0.00 0.00 47 1016.2
20260509142200 73 76 2.6 9.6 0.00 0.00 0.00 46 1016.4
20260509140700 74 21 3.5 10.4 0.00 0.00 0.00 45 1016.4
20260509135207 74 5 1.7 7.8 0.00 0.00 0.00 43 1016.6
20260509133704 74 69 2.6 7.0 0.00 0.00 0.00 44 1016.7
20260509130702 73 76 1.7 7.8 0.00 0.00 0.00 47 1016.9
20260509123702 72 60 2.6 7.8 0.00 0.00 0.00 46 1017.1
20260509122205 74 147 1.7 5.2 0.00 0.00 0.00 45 1017.2
20260509120702 74 35 1.7 5.2 0.00 0.00 0.00 43 1017.3
20260509115201 73 240 1.7 7.0 0.00 0.00 0.00 47 1017.6
20260509113701 72 217 2.6 7.0 0.00 0.00 0.00 44 1017.7
20260509112202 73 215 1.7 6.1 0.00 0.00 0.00 47 1017.7
20260509110701 72 234 1.7 7.0 0.00 0.00 0.00 46 1017.9
20260509105203 70 140 1.7 7.0 0.00 0.00 0.00 52 1018.1
20260509103658 68 19 3.5 9.6 0.00 0.00 0.00 53 1018.2
20260509102158 70 65 3.5 8.7 0.00 0.00 0.00 52 1018.4
20260509100657 70 27 1.7 6.1 0.00 0.00 0.00 53 1018.5
20260509095158 69 248 1.7 6.1 0.00 0.00 0.00 54 1018.5
20260509093655 69 192 1.7 5.2 0.00 0.00 0.00 57 1018.4
20260509092156 67 44 1.7 8.7 0.00 0.00 0.00 61 1018.4
20260509090657 67 46 0.9 7.8 0.00 0.00 0.00 63 1018.4
20260509083653 65 35 1.7 4.3 0.00 0.00 0.00 66 1018.5
20260509075154 56 84 0.0 2.6 0.00 0.00 0.00 82 1018.7
20260509073653 54 213 0.0 0.9 0.00 0.00 0.00 83 1018.9
20260509072506 54 213 0.0 0.9 0.00 0.00 0.00 83 1018.9
20260509071839 54 213 0.9 2.6 0.00 0.00 0.00 82 1018.9
20260509065153 54 194 0.9 2.6 0.00 0.00 0.00 84 1018.7
20260509063650 52 167 0.0 1.7 0.00 0.00 0.00 85 1018.6
20260509062149 52 219 0.0 0.9 0.00 0.00 0.00 85 1018.8
20260509055142 51 229 0.0 1.7 0.00 0.00 0.00 85 1019.0
20260509052142 50 209 0.0 0.0 0.00 0.00 0.00 88 1018.8
20260509045144 47 250 0.0 0.0 0.00 0.00 0.00 91 1018.4
20260509043640 45 250 0.0 0.0 0.00 0.00 0.00 90 1018.4
20260509042141 45 170 0.0 0.0 0.00 0.00 0.00 90 1018.2
20260509040640 45 170 0.0 0.0 0.00 0.00 0.00 89 1017.8
20260509035139 45 170 0.0 0.0 0.00 0.00 0.00 89 1017.7
20260509033643 44 126 0.0 0.9 0.00 0.00 0.00 89 1017.7
20260509032139 44 46 0.0 0.9 0.00 0.00 0.00 88 1017.7
20260509030639 44 46 0.0 0.0 0.00 0.00 0.00 86 1017.8
20260509025140 44 46 0.0 0.0 0.00 0.00 0.00 86 1017.6
20260509023634 44 46 0.0 0.0 0.00 0.00 0.00 86 1017.7
20260509022134 45 46 0.0 0.0 0.00 0.00 0.00 85 1017.6
20260509020635 45 46 0.0 0.0 0.00 0.00 0.00 85 1017.5